Weather History for Buffalo, WY

Change the Weather History Date:

Sunday, March 3, 2013

  Actual Average Record
Temperature  
Mean Temperature 39 °F 31 °F  
Max Temperature 53 °F 42 °F 63 °F (2009)
Min Temperature 25 °F 20 °F -1 °F (2002)
Degree Days  
Heating Degree Days 26 34  
Month to date heating degree days 75 103  
Since 1 July heating degree days 5024 5343  
Cooling Degree Days 0 0  
Month to date cooling degree days 0 0  
Year to date cooling degree days 0 0  
Moisture  
Dew Point 24 °F    
Average Humidity 65    
Maximum Humidity 88    
Minimum Humidity 41    
Precipitation  
Precipitation T in 0.02 in 0.07 in (2011)
Month to date precipitation T 0.06  
Year to date precipitation 0.61 0.83  
Sea Level Pressure  
Sea Level Pressure 29.67 in    
Wind  
Wind Speed 13 mph (NW)    
Max Wind Speed 51 mph    
Max Gust Speed 66 mph    
Visibility 7 miles    
Events Snow    
T = Trace of Precipitation, MM = Missing Value Source: NWS Daily Summary

Daily Weather History Graph

Daily Weather History Graph

Search for Another Location

Airport:

Trip Planner

Search our weather history database for the weather conditions in past years. The results will help you decide how hot, cold, wet, or windy it might be!

Date:

Astronomy

Mar. 03, 2013 Rise Set
Actual Time 6:40 AM MST 5:57 PM MST
Civil Twilight 6:11 AM MST 6:27 PM MST
Nautical Twilight 5:37 AM MST 7:00 PM MST
Astronomical Twilight 5:03 AM MST 7:34 PM MST
Moon No Moon Rise 9:42 AM MST (3/3)
Length of Visible Light 12h 16m
Length of Day
11h 17m
Waning Gibbous, 63% of the Moon is Illuminated
Mar 3
Waning Gibbous
Mar 4
Last Quarter
Mar 11
New
Mar 19
First Quarter
Mar 27
Full

Hourly Weather History & Observations

Time (MST) Temp. Windchill Dew Point Humidity Pressure Visibility Wind Dir Wind Speed Gust Speed Precip Events Conditions
12:53 AM 36.0 °F 33.3 °F 26.1 °F 67% 29.81 in 10.0 mi WNW 3.5 mph - N/A   Clear
1:53 AM 36.0 °F 29.6 °F 25.0 °F 64% 29.79 in 10.0 mi NNW 8.1 mph - N/A   Clear
2:53 AM 37.0 °F 32.4 °F 25.0 °F 62% 29.77 in 10.0 mi NW 5.8 mph - N/A   Overcast
3:53 AM 37.0 °F 33.3 °F 24.1 °F 59% 29.74 in 10.0 mi WSW 4.6 mph - N/A   Clear
4:53 AM 37.0 °F 32.4 °F 24.1 °F 59% 29.73 in 10.0 mi WNW 5.8 mph - N/A   Clear
5:53 AM 36.0 °F 29.6 °F 24.1 °F 62% 29.75 in 10.0 mi WSW 8.1 mph - N/A   Mostly Cloudy
6:53 AM 41.0 °F 39.0 °F 21.9 °F 47% 29.74 in 10.0 mi South 3.5 mph - N/A   Overcast
7:53 AM 39.9 °F 36.7 °F 24.1 °F 53% 29.72 in 10.0 mi SSW 4.6 mph - N/A   Overcast
8:53 AM 41.0 °F 36.4 °F 26.1 °F 55% 29.71 in 10.0 mi SSW 6.9 mph - N/A   Overcast
9:53 AM 42.1 °F - 28.0 °F 58% 29.67 in 10.0 mi Calm Calm - N/A   Overcast
10:53 AM 44.1 °F - 27.0 °F 51% 29.65 in 10.0 mi Calm Calm - N/A   Mostly Cloudy
11:53 AM 48.0 °F - 28.0 °F 46% 29.62 in 10.0 mi SSE 4.6 mph - N/A   Mostly Cloudy
12:53 PM 48.0 °F - 27.0 °F 44% 29.57 in 10.0 mi SSE 4.6 mph - N/A   Clear
1:53 PM 48.0 °F - 28.9 °F 48% 29.55 in 10.0 mi East 5.8 mph - N/A   Partly Cloudy
2:53 PM 53.1 °F - 30.0 °F 41% 29.52 in 10.0 mi North 5.8 mph - N/A   Overcast
3:53 PM 50.0 °F - 28.0 °F 43% 29.51 in 10.0 mi West 16.1 mph - N/A   Scattered Clouds
4:53 PM 48.9 °F - 28.9 °F 46% 29.49 in 10.0 mi SW 6.9 mph - N/A   Clear
5:24 PM 33.8 °F 17.9 °F 26.6 °F 75% 29.59 in 10.0 mi NNW 42.6 mph 65.6 mph N/A   Squalls
5:36 PM 32.0 °F 15.1 °F 26.6 °F 80% 29.61 in 10.0 mi NNW 44.9 mph 65.6 mph N/A   Partly Cloudy
5:53 PM 30.9 °F 14.5 °F 24.1 °F 76% 29.66 in 10.0 mi NNW 39.1 mph 61.0 mph N/A   Mostly Cloudy
6:27 PM 28.4 °F 11.4 °F 24.8 °F 86% 29.63 in 9.0 mi NNW 36.8 mph 49.5 mph N/A   Partly Cloudy
6:48 PM 26.6 °F 9.1 °F 24.8 °F 93% 29.64 in 3.0 mi NNW 35.7 mph 55.2 mph 0.00 in Snow Light Snow
6:53 PM 27.0 °F 10.0 °F 24.1 °F 89% 29.69 in 3.0 mi NNW 33.4 mph 51.8 mph 0.00 in Snow Light Snow
7:03 PM 26.6 °F 10.3 °F 24.8 °F 93% 29.66 in 2.5 mi NNW 29.9 mph 50.6 mph 0.00 in Snow Light Snow
7:13 PM 26.6 °F 8.5 °F 23.0 °F 86% 29.65 in 3.0 mi NNW 39.1 mph 51.8 mph 0.00 in Snow Light Snow
7:20 PM 26.6 °F 9.8 °F 23.0 °F 86% 29.67 in 2.5 mi NNW 32.2 mph 51.8 mph 0.00 in Snow Light Snow
7:27 PM 26.6 °F 9.1 °F 23.0 °F 86% 29.66 in 1.8 mi NNW 35.7 mph 49.5 mph 0.00 in Snow Light Snow
7:42 PM 26.6 °F 9.3 °F 23.0 °F 86% 29.67 in 1.0 mi NNW 34.5 mph 46.0 mph 0.00 in Snow Light Snow
7:53 PM 26.1 °F 9.3 °F 23.0 °F 88% 29.72 in 1.0 mi NNW 31.1 mph 42.6 mph 0.00 in Snow Light Snow
8:09 PM 26.6 °F 9.1 °F 23.0 °F 86% 29.68 in 1.2 mi NNW 35.7 mph 54.1 mph 0.00 in Snow Light Snow
8:21 PM 26.6 °F 8.3 °F 21.2 °F 80% 29.67 in 3.0 mi NNW 40.3 mph 57.5 mph 0.00 in Snow Light Snow
8:27 PM 26.6 °F 8.3 °F 21.2 °F 80% 29.66 in 2.5 mi NNW 40.3 mph 54.1 mph 0.00 in Snow Light Snow
8:53 PM 25.0 °F 6.4 °F 21.0 °F 85% 29.73 in 2.5 mi NNW 38.0 mph 52.9 mph 0.00 in Snow Light Snow
9:01 PM 26.6 °F 9.1 °F 19.4 °F 74% 29.69 in 8.0 mi NNW 35.7 mph 48.3 mph 0.00 in Snow Light Snow
9:10 PM 26.6 °F 8.5 °F 19.4 °F 74% 29.70 in 9.0 mi NNW 39.1 mph 51.8 mph 0.00 in Snow Light Snow
9:53 PM 27.0 °F 10.3 °F 19.0 °F 72% 29.76 in 9.0 mi NNW 32.2 mph 42.6 mph 0.00 in   Overcast
10:53 PM 28.0 °F 13.9 °F 17.1 °F 63% 29.80 in 10.0 mi NNW 23.0 mph 34.5 mph 0.00 in   Overcast
11:53 PM 28.9 °F 16.5 °F 12.9 °F 51% 29.77 in 10.0 mi NNW 18.4 mph 29.9 mph N/A   Overcast